EW1979 Weather Reports


time (UTC)temp
C
wind
direction
speed
KPH
gust
KPH
rain 1hr
cm
rain 24hr
cm
rain mn
cm
humidity
%
barometer
mb
20260906184603 31 171 4.8 0.0 0.00 0.00 0.00 53 1009.3
20260906183005 31 136 8.0 0.0 0.00 0.00 0.00 52 1009.5
20260906180003 32 188 6.4 0.0 0.00 0.00 0.00 53 1009.7
20260906174502 31 147 4.8 0.0 0.00 0.00 0.00 55 1010.1
20260906173120 31 223 6.4 0.0 0.00 0.00 0.00 54 1010.5
20260906171504 31 157 4.8 0.0 0.00 0.00 0.00 53 1010.5
20260906164503 30 240 6.4 0.0 0.00 0.00 0.00 57 1010.7
20260906163010 30 315 6.4 0.0 0.00 0.00 0.00 60 1010.7
20260906161502 29 198 6.4 0.0 0.00 0.00 0.00 61 1010.9
20260906160001 28 175 8.0 0.0 0.00 0.00 0.00 63 1010.7
20260906154612 28 157 8.0 0.0 0.00 0.00 0.00 64 1010.6
20260906153006 28 218 6.4 0.0 0.00 0.00 0.00 65 1010.5
20260906151507 28 219 8.0 0.0 0.00 0.00 0.00 66 1010.5
20260906150013 27 161 8.0 0.0 0.00 0.00 0.00 69 1010.3
20260906144507 27 208 8.0 0.0 0.00 0.00 0.00 72 1010.3
20260906143113 26 167 8.0 0.0 0.00 0.00 0.00 74 1010.3
20260906140016 25 205 8.0 0.0 0.00 0.00 0.00 75 1010.1
20260906134603 25 214 6.4 0.0 0.00 0.00 0.00 78 1010.2
20260906133010 25 202 6.4 0.0 0.00 0.00 0.00 81 1010.0
20260906131506 23 184 4.8 0.0 0.00 0.00 0.00 83 1010.0
20260906130006 23 171 4.8 0.0 0.00 0.00 0.00 84 1009.6
20260906124502 23 161 3.2 0.0 0.00 0.00 0.00 84 1009.3
20260906123013 23 151 4.8 0.0 0.00 0.00 0.00 83 1009.3
20260906121607 23 164 3.2 0.0 0.00 0.00 0.00 82 1009.1
20260906114502 23 229 1.6 0.0 0.00 0.00 0.00 83 1008.6
20260906113104 22 207 1.6 0.0 0.00 0.00 0.00 84 1008.4
20260906111607 22 250 0.0 0.0 0.00 0.00 0.00 85 1008.4
20260906110004 22 317 0.0 0.0 0.00 0.00 0.00 86 1008.4
20260906104507 22 337 0.0 0.0 0.00 0.00 0.00 86 1008.1
20260906101608 22 337 0.0 0.0 0.00 0.00 0.00 85 1008.1
20260906094507 22 211 0.0 0.0 0.00 0.00 0.00 84 1007.7
20260906091503 22 226 3.2 0.0 0.00 0.00 0.00 82 1007.7
20260906090139 23 195 3.2 0.0 0.00 0.00 0.00 81 1007.8
20260906084625 23 189 4.8 0.0 0.00 0.00 0.00 81 1008.0
20260906083103 23 212 6.4 0.0 0.00 0.00 0.00 80 1008.0
20260906081504 23 201 4.8 0.0 0.00 0.00 0.00 79 1008.2
20260906080003 23 190 4.8 0.0 0.00 0.00 0.00 79 1008.2
20260906074603 23 185 4.8 0.0 0.00 0.00 0.00 78 1008.4
20260906073003 24 163 6.4 0.0 0.00 0.00 0.00 76 1008.7
20260906071507 24 169 8.0 0.0 0.00 0.00 0.00 75 1008.8
20260906070005 24 166 8.0 0.0 0.00 0.00 0.00 73 1009.2
20260906064603 25 176 6.4 0.0 0.00 0.00 0.00 72 1009.1
20260906063005 25 173 8.0 0.0 0.00 0.00 0.00 72 1009.0
20260906061508 25 156 6.4 0.0 0.00 0.00 0.00 71 1009.3
20260906060008 25 161 8.0 0.0 0.00 0.00 0.00 70 1009.5
20260906054505 25 140 6.4 0.0 0.00 0.00 0.00 69 1009.4
20260906053008 26 121 8.0 0.0 0.00 0.00 0.00 70 1009.1
20260906051504 26 147 11.3 0.0 0.00 0.00 0.00 70 1009.3
20260906050004 26 161 11.3 0.0 0.00 0.00 0.00 69 1009.5
20260906044620 26 163 8.0 0.0 0.00 0.00 0.00 68 1009.4
20260906043002 27 153 11.3 0.0 0.00 0.00 0.00 66 1009.5
20260906040105 27 148 6.4 0.0 0.00 0.00 0.00 58 1009.3
20260906033103 28 126 6.4 0.0 0.00 0.00 0.00 53 1008.9
20260906030003 28 175 3.2 0.0 0.00 0.00 0.00 54 1008.4
20260906024504 28 152 1.6 0.0 0.00 0.00 0.00 55 1008.2
20260906023106 27 106 0.0 0.0 0.00 0.00 0.00 57 1008.1
20260906021506 27 106 0.0 0.0 0.00 0.00 0.00 56 1007.8
20260906020106 28 106 0.0 0.0 0.00 0.00 0.00 55 1007.5
20260906014604 28 103 0.0 0.0 0.00 0.00 0.00 55 1007.4
20260906013104 28 127 1.6 0.0 0.00 0.00 0.00 55 1007.5
20260906010035 29 142 0.0 0.0 0.00 0.00 0.00 52 1007.2
20260906004504 30 122 1.6 0.0 0.00 0.00 0.00 51 1007.3
20260906003105 31 111 3.2 0.0 0.00 0.00 0.00 50 1007.2
20260906001609 31 111 3.2 0.0 0.00 0.00 0.00 49 1006.9
20260906000007 32 116 3.2 0.0 0.00 0.00 0.00 48 1006.8
20260905234503 32 114 3.2 0.0 0.00 0.00 0.00 47 1006.8
20260905233103 32 130 3.2 0.0 0.00 0.00 0.00 47 1006.9
20260905230123 31 118 3.2 0.0 0.00 0.00 0.00 49 1006.8
20260905224506 31 126 4.8 0.0 0.00 0.00 0.00 50 1006.9
20260905223016 32 88 4.8 0.0 0.00 0.00 0.00 47 1006.6
20260905221608 32 83 3.2 0.0 0.00 0.00 0.00 46 1006.9
20260905220007 32 168 4.8 0.0 0.00 0.00 0.00 45 1006.7
20260905214508 33 103 3.2 0.0 0.00 0.00 0.00 47 1006.6
20260905213105 33 70 3.2 0.0 0.00 0.00 0.00 45 1006.7
20260905210104 32 144 6.4 0.0 0.00 0.00 0.00 48 1007.3
20260905204612 32 155 4.8 0.0 0.00 0.00 0.00 47 1007.5
20260905203104 32 63 4.8 0.0 0.00 0.00 0.00 47 1007.6
20260905201609 32 78 4.8 0.0 0.00 0.00 0.00 48 1007.7
20260905200003 33 172 6.4 0.0 0.00 0.00 0.00 47 1007.7
20260905194602 33 71 3.2 0.0 0.00 0.00 0.00 48 1008.3
20260905193015 32 60 3.2 0.0 0.00 0.00 0.00 52 1008.6
20260905191501 32 183 6.4 0.0 0.00 0.00 0.00 51 1008.8
20260905190004 32 72 8.0 0.0 0.00 0.00 0.00 53 1009.0